Liverpool, United Kingdom

8:52 PM BST on April 27, 2017 (GMT +0100)
Liverpool

Weather History for EGGP - February, 2013

Change the Weather History Date:

Saturday, February 9, 2013

  Actual Average Record
Temperature  
Mean Temperature 38 °F -  
Max Temperature 41 °F 46 °F 53 °F (2002)
Min Temperature 35 °F 37 °F 26 °F (2001)
Degree Days  
Heating Degree Days 27    
Moisture  
Dew Point 38 °F    
Average Humidity 99    
Maximum Humidity 100    
Minimum Humidity 87    
Precipitation  
Precipitation 0.00 in - - ()
Sea Level Pressure  
Sea Level Pressure 30.01 in    
Wind  
Wind Speed 6 mph ()    
Max Wind Speed 10 mph    
Max Gust Speed -    
Visibility 2.8 miles    
Events Fog , Rain    
Averages and records for this station are not official NWS values.
T = Trace of Precipitation, MM = Missing Value Source: Averaged Metar Reports

Daily Weather History Graph

Daily Weather History Graph

Search for Another Location

Airport or City:

Trip Planner

Search our weather history database for the weather conditions in past years. The results will help you decide how hot, cold, wet, or windy it might be!

Date:

Astronomy

Feb. 09, 2013 Rise Set
Actual Time 7:41 AM GMT 5:10 PM GMT
Civil Twilight 7:04 AM GMT 5:47 PM GMT
Nautical Twilight 6:23 AM GMT 6:28 PM GMT
Astronomical Twilight 5:43 AM GMT 7:09 PM GMT
Moon 6:43 AM GMT (2/9) 4:39 PM GMT (2/9)
Length of Visible Light 10h 43m
Length of Day
9h 29m
Waning Crescent, 1% of the Moon is Illuminated
Feb 9
Waning Crescent
Feb 10
New
Feb 17
First Quarter
Feb 25
Full
Mar 4
Last Quarter

Hourly Weather History & Observations

Time (GMT) Temp. Windchill Dew Point Humidity Pressure Visibility Wind Dir Wind Speed Gust Speed Precip Events Conditions
12:20 AM 41.0 °F 36.4 °F 37.4 °F 87% 30.15 in 5.6 mi WNW 6.9 mph - N/A Rain Light Rain
12:50 AM 39.2 °F 35.9 °F 37.4 °F 93% 30.15 in 5.6 mi West 4.6 mph - N/A Rain Light Rain
1:20 AM 39.2 °F 35.0 °F 37.4 °F 93% 30.15 in 5.6 mi WSW 5.8 mph - N/A Rain Light Rain
3:50 AM 37.4 °F 31.4 °F 37.4 °F 100% 30.12 in 4.3 mi SSE 8.1 mph - N/A Rain Light Rain
4:20 AM 37.4 °F 30.3 °F 37.4 °F 100% 30.12 in 4.3 mi SE 10.4 mph - N/A Rain Light Rain
4:50 AM 37.4 °F 31.4 °F 35.6 °F 93% 30.12 in 3.7 mi SSE 8.1 mph - N/A Rain Light Rain
5:20 AM 37.4 °F 32.1 °F 35.6 °F 93% 30.09 in 3.7 mi SE 6.9 mph - N/A Rain Light Rain
5:50 AM 35.6 °F 29.9 °F 35.6 °F 100% 30.09 in 3.7 mi ESE 6.9 mph - N/A Rain Light Rain
6:20 AM 37.4 °F 31.4 °F 37.4 °F 100% 30.09 in 3.1 mi SE 8.1 mph - N/A Rain Light Rain
6:50 AM 37.4 °F 32.1 °F 37.4 °F 100% 30.09 in 3.1 mi SE 6.9 mph - N/A Rain Rain
7:20 AM 37.4 °F 32.8 °F 37.4 °F 100% 30.09 in 3.1 mi ESE 5.8 mph - N/A Rain Rain
7:50 AM 37.4 °F 32.1 °F 37.4 °F 100% 30.09 in 1.6 mi ESE 6.9 mph - N/A Rain Rain
8:20 AM 37.4 °F 32.1 °F 37.4 °F 100% 30.09 in 2.2 mi East 6.9 mph - N/A Rain Rain
8:50 AM 37.4 °F 32.8 °F 37.4 °F 100% 30.09 in 3.7 mi SE 5.8 mph - N/A Rain Light Rain
9:20 AM 37.4 °F 32.1 °F 37.4 °F 100% 30.09 in 5.6 mi SE 6.9 mph - N/A   Mostly Cloudy
9:50 AM 37.4 °F 33.8 °F 37.4 °F 100% 30.09 in 5.6 mi SE 4.6 mph - N/A   Mostly Cloudy
10:20 AM 37.4 °F 33.8 °F 37.4 °F 100% 30.09 in 5.6 mi East 4.6 mph - N/A Rain Light Rain
10:50 AM 37.4 °F 32.8 °F 37.4 °F 100% 30.06 in 5.6 mi ESE 5.8 mph - N/A Rain Light Rain
11:20 AM 39.2 °F 35.0 °F 37.4 °F 93% 30.06 in 4.3 mi SE 5.8 mph - N/A Rain Light Rain
11:50 AM 39.2 °F 35.0 °F 39.2 °F 100% 30.06 in 2.5 mi SE 5.8 mph - N/A   Mostly Cloudy
12:20 PM 39.2 °F 35.0 °F 39.2 °F 100% 30.04 in 2.2 mi SE 5.8 mph - N/A Rain Rain
12:50 PM 39.2 °F 35.0 °F 39.2 °F 100% 30.04 in 1.2 mi SSE 5.8 mph - N/A Rain Rain
1:20 PM 39.2 °F 35.9 °F 39.2 °F 100% 30.04 in 0.9 mi SSE 4.6 mph - N/A Rain Rain
1:50 PM 39.2 °F 35.9 °F 39.2 °F 100% 30.04 in 0.9 mi SE 4.6 mph - N/A Rain Rain
2:20 PM 39.2 °F 35.0 °F 39.2 °F 100% 30.01 in 0.6 mi SSE 5.8 mph - N/A Rain Rain
2:50 PM 39.2 °F 35.0 °F 39.2 °F 100% 30.01 in 0.7 mi SE 5.8 mph - N/A Rain Rain
3:20 PM 39.2 °F 35.0 °F 39.2 °F 100% 30.01 in 1.9 mi SSE 5.8 mph - N/A Rain Rain
3:50 PM 39.2 °F 35.9 °F 39.2 °F 100% 29.98 in 1.6 mi SE 4.6 mph - N/A Rain Light Rain
4:20 PM 39.2 °F 35.9 °F 39.2 °F 100% 29.98 in 0.4 mi SE 4.6 mph - N/A Fog , Rain Light Rain
4:50 PM 39.2 °F 35.0 °F 39.2 °F 100% 29.98 in 0.2 mi SE 5.8 mph - N/A Fog , Rain Light Rain
5:20 PM 39.2 °F 35.9 °F 39.2 °F 100% 29.98 in 0.5 mi SE 4.6 mph - N/A Fog , Rain Light Rain
5:50 PM 39.2 °F 35.9 °F 39.2 °F 100% 29.95 in 0.4 mi SE 4.6 mph - N/A Fog , Rain Light Rain
6:20 PM 39.2 °F 35.0 °F 39.2 °F 100% 29.95 in 1.1 mi SE 5.8 mph - N/A   Light Drizzle
6:50 PM 39.2 °F 35.0 °F 39.2 °F 100% 29.95 in 1.6 mi SE 5.8 mph - N/A   Light Drizzle
7:20 PM 39.2 °F 34.2 °F 39.2 °F 100% 29.92 in 1.6 mi SE 6.9 mph - N/A   Light Drizzle
7:50 PM 39.2 °F 33.6 °F 39.2 °F 100% 29.92 in 0.6 mi SE 8.1 mph - N/A Fog Light Drizzle
8:20 PM 39.2 °F 34.2 °F 39.2 °F 100% 29.89 in 2.5 mi SE 6.9 mph - N/A Fog Fog
8:50 PM 39.2 °F 33.6 °F 39.2 °F 100% 29.89 in 2.8 mi SE 8.1 mph - N/A   Light Drizzle
9:20 PM 39.2 °F 33.6 °F 39.2 °F 100% 29.86 in 2.8 mi ESE 8.1 mph - N/A   Light Drizzle
9:50 PM 39.2 °F 33.6 °F 39.2 °F 100% 29.86 in 2.8 mi ESE 8.1 mph - N/A   Light Drizzle
10:20 PM 39.2 °F 33.0 °F 39.2 °F 100% 29.83 in 2.8 mi ESE 9.2 mph - N/A   Light Drizzle
10:50 PM 39.2 °F 33.6 °F 39.2 °F 100% 29.83 in 3.1 mi ESE 8.1 mph - N/A   Light Drizzle
11:20 PM 39.2 °F 34.2 °F 39.2 °F 100% 29.80 in 3.1 mi ESE 6.9 mph - N/A Rain Light Rain
11:50 PM 39.2 °F 33.6 °F 39.2 °F 100% 29.80 in 3.1 mi ESE 8.1 mph - N/A Rain Light Rain